Volver al catálogo

STARLINK-37172

ActivoComunicacionesSSO
NORAD 68395·PAYLOAD·🇺🇸 United States

Lanzado Mar 26, 2026 desde Vandenberg Space Force Base

Loading…

Próximos Pases (próximas 24 horas)

TLE

ActualizadoSource: CelesTrak SupGP

Época: Sep 14, 2026, 22:47 UTC

1 68395C 26063R   26257.94979167 -.00019612  00000+0 -60874-3 0  2577
2 68395  97.2863  38.8408 0001021  92.0809 310.9803 15.33452804    11

Sigue STARLINK-37172 en tiempo real con AllMySat

Download on the App Store